Location: Ebendorf
(52.1827°N, 11.5706°E)
Time: 12:52:26
(UTC+00:00)

Cosmos 614 Rocket - Pass Details

Date: 15 May 2021
Orbit: 733 x 763 km, 74.1° (Epoch: 20 June)

Event Time Altitude Azimuth Distance (km) Brightness Sun altitude
Rises 00:04:11 0° 335° (NNW) 3,178 8.1 -18.0°
Reaches altitude 10° 00:06:33 10° 339° (NNW) 2,254 7.2 -17.9°
Maximum altitude 00:11:38 67° 62° (ENE) 807 4.2 -17.7°
Enters shadow 00:15:54 15° 143° (SE) 1,944 5.8 -17.5°
